Skip Page Navigation
NASA JPL Caltech
NASA Logo - Jet Propulsion Laboratory + View the NASA Portal
+ Center for Near-Earth Object Studies
JPL Home Earth Solar System Stars & Galaxies Technology
JPL Solar System Dynamics
BODIES ORBITS EPHEMERIDES TOOLS PHYSICAL DATA DISCOVERY FAQ SITE MAP
JPL Small-Body Database Browser
Search: [ help ]  
(2018 XC4)
Classification: Apollo [NEO]          SPK-ID: 3836892
Ephemeris | Orbit Diagram | Orbital Elements | Mission Design | Physical Parameters | Close-Approach Data ]

[ hide orbit diagram ]

For accurate long-term ephemerides, please instead use our Horizons system.This orbit viewer was implemented using two-body methods, and hence should not be used for determining accurate long-term trajectories (over several years or decades) or planetary encounter circumstances.


Orbital Elements at Epoch 2459396.5 (2021-Jul-01.0) TDB
Reference: JPL 8 (heliocentric ecliptic J2000)
 Element Value Uncertainty (1-sigma)   Units 
e .3105169950410485 2.0113e-06  
a 1.2677653237652 4.2113e-06 au
q .8741026450123884 8.1231e-07 au
i 2.170933014792021 5.3522e-05 deg
node 95.08363360198696 0.00044341 deg
peri 52.41316934618461 0.00067264 deg
M 245.3388433157763 0.002896 deg
tp 2459562.562108414435
(2021-Dec-14.06210841)
0.0050217 TDB
period 521.3828358093122
1.43
0.0025979
7.113e-06
d
yr
n .690471521643387 3.4405e-06 deg/d
Q 1.661428002518012 5.519e-06 au
  Orbit Determination Parameters
   # obs. used (total)      68  
   # delay obs. used      0  
   # Doppler obs. used      1  
   data-arc span      6 days  
   first obs. used      2018-12-13  
   last obs. used      2018-12-19  
   planetary ephem.      DE441  
   SB-pert. ephem.      SB441-N16  
   condition code      4  
   norm. resid. RMS      .40516  
   source      ORB  
   producer      Otto Matic  
   solution date      2021-Apr-15 20:56:04  

Additional Information
 Earth MOID = .0034806 au 
 Jupiter MOID = 3.3429 au 
 T_jup = 5.042 
[ show covariance matrix ]

Ephemeris | Orbit Diagram | Orbital Elements | Mission Design | Physical Parameters | Close-Approach Data ]

Physical Parameter Table
Parameter Symbol Value Units Sigma Reference Notes
absolute magnitude H 26.3   .49875 E2018Y73 autocmod 2.6q

[ hide close-approach data ]
Close-Approach Data   ...sorted by Date/Time (TDB)
Date/Time (TDB) Time Uncertainty
(days_HH:MM)
Body Nominal Distance (au) Minimum Distance (au) Maximum Distance (au) V-relative (km/s) V-infinity (km/s) JD (TDB) Time Uncertainty (minutes) Semi-major axis (km) Semi-minor axis (km) range-LOV angle (deg) N-sigma BP Orbit Ref. Reference Modified
1948-May-15 14:36 8_20:37 Earth 0.396832507269562 0.264387987355047 0.530769634581708 19.2925823110698 19.2922342794753 2432687.108195989 12757.3275801849 6751761.25064292 58.9517317902563 -9.76034647498978 151663.475179557 T 8 CATAB v2.0g-lin.ifort 2021-Apr-15 20:56:04 2021-Apr-15 20:56
1950-Dec-21 11:09 2_05:58 Moon 0.00762271075554444 0.00498881610693812 0.0295065766211869 7.75243094771797 7.75187633865327 2433636.964503774 3237.52095136332 1162808.55564074 10.7605444039468 -40.8828198125619 70940.2423349039 T 8 CATAB v2.0g-lin.ifort 2021-Apr-15 20:56:04 2021-Apr-15 20:56
1950-Dec-22 05:47 3_02:09 Earth 0.00779776567961028 0.00448096379459898 0.0285675937047177 7.46118259001439 7.4152444364073 2433637.740731144 4448.67198001839 1089539.00427749 11.5434806067358 -35.2376843176911 66044.7874596213 T 8 CATAB v2.0g-lin.ifort 2021-Apr-15 20:56:04 2021-Apr-15 20:56
1951-Jun-04 23:28 2_16:16 Earth 0.38807061149488 0.374759069680242 0.401386205459313 5.8503968859593 5.84922317856963 2433802.477635225 3856.36475439145 666832.858422965 16.7914814768873 5.71076258610988 173863.466528776 T 8 CATAB v2.0g-lin.ifort 2021-Apr-15 20:56:04 2021-Apr-15 20:56
1961-May-13 11:01 1_08:46 Earth 0.377129527120791 0.350144559218177 0.404133423469273 18.7055031904126 18.7051254818681 2437432.959300056 1966.40989360439 1352680.6728404 41.309532966805 -5.65196997291741 117094.604172628 T 8 CATAB v2.0g-lin.ifort 2021-Apr-15 20:56:04 2021-Apr-15 20:56
1964-Jan-24 22:12 9_16:47 Earth 0.0980298331507868 0.0864447427582885 0.109693347228974 6.08279966020208 6.07832963282249 2438419.424845851 13966.6344486596 595933.231442846 27.1520787450887 -13.4311275632723 105527.132930228 T 8 CATAB v2.0g-lin.ifort 2021-Apr-15 20:56:04 2021-Apr-15 20:56
1964-May-14 07:22 9_00:34 Earth 0.304473232737408 0.28133361180816 0.327663617598599 3.43585788617208 3.43330994670145 2438529.807134631 12993.6913430549 1171693.54708898 13.151710239479 11.6377302177032 149982.065611272 T 8 CATAB v2.0g-lin.ifort 2021-Apr-15 20:56:04 2021-Apr-15 20:56
1976-Nov-19 23:48 4_11:03 Earth 0.313261156044665 0.297834048537601 0.328687973971528 4.08499517271589 4.08291248101138 2443102.491922453 6422.49282493197 769135.482846085 39.3183083779985 4.14984806880613 24328.4902473376 T 8 CATAB v2.0g-lin.ifort 2021-Apr-15 20:56:04 2021-Apr-15 20:56
1977-Mar-17 10:38 7_02:55 Earth 0.098054751735851 0.0899296404285317 0.106264957499243 5.9448813452752 5.94030869931107 2443219.942776701 10254.7002348994 432032.369593615 88.0751021705502 19.486908050537 44499.5446283514 T 8 CATAB v2.0g-lin.ifort 2021-Apr-15 20:56:04 2021-Apr-15 20:56
1979-Nov-27 00:38 18:28 Earth 0.379603030677817 0.363476510246482 0.39573094739243 19.0463029326213 19.0459343997763 2444204.526681503 1107.51117456644 805018.226985237 12.1489071588125 2.61170231395607 181089.44431011 T 8 CATAB v2.0g-lin.ifort 2021-Apr-15 20:56:04 2021-Apr-15 20:56
1989-Nov-01 20:07 07:38 Earth 0.39529891456887 0.393914504381759 0.396683610696557 6.20042843148418 6.19934124733403 2447832.338464166 457.778923511514 71048.7433806512 49.268687369759 13.7679248653238 134153.836144723 T 8 CATAB v2.0g-lin.ifort 2021-Apr-15 20:56:04 2021-Apr-15 20:56
1990-Apr-19 01:55 07:09 Earth 0.0310245430965067 0.0309064069593083 0.0312997797331537 7.65124263659838 7.64000968458691 2448000.579710976 428.634116152453 110680.691882613 57.2073285170076 -84.9241901562378 70645.9323668784 T 8 CATAB v2.0g-lin.ifort 2021-Apr-15 20:56:04 2021-Apr-15 20:56
1992-Dec-03 20:06 02:22 Earth 0.237380070576406 0.235543969275326 0.239216191256519 14.7814318569702 14.7806724706795 2448960.337308395 142.356339303745 91621.8804052016 8.12676749380453 2.19090834823831 140902.460402055 T 8 CATAB v2.0g-lin.ifort 2021-Apr-15 20:56:04 2021-Apr-15 20:56
2002-Oct-16 08:11 00:48 Earth 0.486497762819012 0.486300309048631 0.486695222140308 7.84805465212577 7.84735675919212 2452563.840994621 48.1932370083502 10181.68980233 66.1239076490554 14.7829179665025 171733.262276064 T 8 CATAB v2.0g-lin.ifort 2021-Apr-15 20:56:04 2021-Apr-15 20:56
2003-May-04 00:35 00:31 Earth 0.190808604234506 0.190334813089498 0.191282422800184 13.2003650403509 13.1993071373141 2452763.524251100 31.2909587062472 23900.4974531481 43.1490937350885 -8.70629269236789 82437.1293928053 T 8 CATAB v2.0g-lin.ifort 2021-Apr-15 20:56:04 2021-Apr-15 20:56
2005-Dec-16 13:23 02:17 Earth 0.0472088006763506 0.0461412512851272 0.0482764843382745 9.04003820190031 9.03379267373921 2453721.057600783 136.555238094449 53385.64438785 7.30532749594307 4.43071487933869 71888.25143991 T 8 CATAB v2.0g-lin.ifort 2021-Apr-15 20:56:04 2021-Apr-15 20:56
2006-Jun-11 06:05 02:34 Earth 0.417800211576796 0.417233295775627 0.418367130835896 6.43074777470834 6.42975599386396 2453897.753427332 154.164215374152 28333.3629565652 25.6784203976516 4.14951228678067 94039.1773619741 T 8 CATAB v2.0g-lin.ifort 2021-Apr-15 20:56:04 2021-Apr-15 20:56
2016-May-07 21:39 00:21 Earth 0.264333223230931 0.264093951028278 0.264572498890675 15.3855081349974 15.3848529589555 2457516.401776937 20.5953656162637 12026.4744727349 38.6983519160999 -7.22022873230933 108416.630609606 T 8 CATAB v2.0g-lin.ifort 2021-Apr-15 20:56:04 2021-Apr-15 20:56
2018-Dec-21 03:47 < 00:01 Moon 0.00440915434126532 0.0044087334481625 0.00440957523824692 7.84860979854946 7.84766269614228 2458473.657487717 0.322170969142255 21.9981192428994 2.97886530751723 -17.5931298259858 72058.106594371 T 8 CATAB v2.0g-lin.ifort 2021-Apr-15 20:56:04 2021-Apr-15 20:56
2018-Dec-21 15:34 < 00:01 Earth 0.00411143139625338 0.00411092053784409 0.00411194225457643 7.75155760762043 7.66749718818125 2458474.148807623 0.317452617316788 25.4568221673619 3.14702856919828 0.844974214414286 23372.6090226837 T 8 CATAB v2.0g-lin.ifort 2021-Apr-15 20:56:04 2021-Apr-15 20:56
2019-Jun-10 02:06 00:05 Earth 0.393603819825796 0.393598633522738 0.393609006128899 6.10441709772699 6.10330805493115 2458644.587782002 4.68886411890518 258.724096414446 104.972569817515 -2.1570799940782 151887.54737756 T 8 CATAB v2.0g-lin.ifort 2021-Apr-15 20:56:04 2021-Apr-15 20:56
2026-May-19 03:27 00:46 Earth 0.434650801486647 0.434002080885299 0.435299532253334 20.3739905481832 20.3736896642632 2461179.643928271 45.6044403214835 32518.7011676416 42.8283951528621 -5.86079830552835 137320.880440278 T 8 CATAB v2.0g-lin.ifort 2021-Apr-15 20:56:04 2021-Apr-15 20:56
2028-Dec-16 22:48 01:58 Earth 0.0430319551091332 0.0421113617828808 0.0439526783784443 8.90575815778189 8.89880279150086 2462122.450019518 117.677165508502 46060.8018828667 6.85894546169657 4.80433742632405 77533.0678534902 T 8 CATAB v2.0g-lin.ifort 2021-Apr-15 20:56:04 2021-Apr-15 20:56
2029-Jun-14 17:35 01:55 Earth 0.416048312794106 0.415586175338084 0.416510452798775 6.57582319938396 6.5748492180638 2462302.232590855 114.875484034969 23102.1356278443 32.5087650840951 4.29495552446772 80468.9392682643 T 8 CATAB v2.0g-lin.ifort 2021-Apr-15 20:56:04 2021-Apr-15 20:56
2035-Oct-28 11:38 00:30 Mars 0.0503904218876977 0.0499776047883902 0.0508050599562846 8.30418884561653 8.30350465222843 2464628.984854085 30.0513921245767 25570.1607470463 115.202435898894 -36.2095811989509 38786.1103377357 T 8 CATAB v2.0g-lin.ifort 2021-Apr-15 20:56:04 2021-Apr-15 20:56
